SL-16 DEB, 22577

Orbit data source: Space-Track

SL-16 DEB, 22577 is space debris in LEO originally from a launch on Fri, 26 Mar 1993 UTC launched from the Tyuratam Missile And Space Complex (TTMTR). Debris objects in space refer to the collection of defunct objects orbiting the Earth. Examples of debris include non-operational satellites, rocket bodies, and fragments generated from explosions, collisions, or faulty payload assembly.

Loading next visibility...
Identifier
22577, 1993-016E
Orbit
LEO
Country
Flag of CISCIS
Related business
Manufacturer
Yuzhnoe
Mission
Spacecraft
Bus & Motor
SEP MOTOR COVER, Unknown motor
Mass
~0 kg wet, ~1 kg dry
Launch date (UTC)
1993-03-26 (33 years ago)
Launch vehicle
Unknown
Launch site
Tyuratam Missile And Space Complex (TTMTR)
Object type
Payload
Rocket body
Debris
Shape & HBR
Unknown shape, 0.6 m
Radar Cross Section
Medium (>0.1 m² and <1 m²)

Expand to show TLE details & history
Last TLE update: 11 hours ago

TLE from 11 hours ago
0 SL-16 DEB
1 22577U 93016E   26038.01300582  .00000170  00000-0  61181-4 0  9999
2 22577  71.0379 250.6906 0118123 283.0804 191.3435 14.43865077730259
Epoch: 2026-02-07T00:18Z
TLE epoch observation values (Epoch: 2026-02-07T00:18:43.702Z)
Latitude
59.75106°
Longitude
-107.01338°
Altitude
837.925 km
Speed
7.397 km/s
True Right ascension
02h 19m 14s
True Declination
59° 36' 10"
Sunlit
Object was in daylight at epoch
Visualization orbit readout
Latitude
Unknown
Longitude
Unknown
Altitude
Unknown
Speed
Unknown
Apparent Right ascension
Unknown
Apparent Declination
Unknown
Sunlit
N/A
Visualization observer readout
Local Sidereal Time
13:04:06
Azimuth
Unknown
Elevation
Unknown
Doppler factor
Unknown
Orbital elements
Apogee altitude
827.774 km
Perigee altitude
659.525 km
Semi-major axis
7,121.786 km
Eccentricity
0.01181
Inclination
71.0379°
RAAN
250.6906°
Arg. of periapsis
283.0804°
True anomaly
191.08106°
Mean anomaly
191.3435°
Eccentric anomaly
191.21191°
Mean motion
3.61127 °/min
Orbital period
99.69 mins
BSTAR
0.000061181
Loading maneuver chart data...
Computing Atmospheric mass density...
Loading historical data...
Loading historical data...
Loading historical data...
Loading historical data...
Loading historical data...
Loading historical data...
Loading historical data...

Documentation

Showing up to 5 results
|